This is the latest recevied weather packets stored in our database for station/object KG4ZVW. If no packets are shown the sender has not sent any weather packets the latest 10 day(s).
| Time | Temp. | Humidity | Pressure | Rain* | Wind** | Luminosity | Snow |
|---|---|---|---|---|---|---|---|
| 1777573096 | 32.22° C | 50% | 1010.2 hPa | 0 mm | - | 501 W/m² | - |
| 1777572816 | 32.22° C | 49% | 1010.2 hPa | 0 mm | - | 287 W/m² | - |
| 1777572509 | 32.78° C | 50% | 1010.4 hPa | 0 mm | - | 445 W/m² | - |
| 1777572203 | 32.78° C | 49% | 1010.4 hPa | 0 mm | - | 1081 W/m² | - |
| 1777571911 | 32.78° C | 50% | 1010.4 hPa | 0 mm | - | 313 W/m² | - |
| 1777571609 | 32.78° C | 50% | 1010.3 hPa | 0 mm | - | 322 W/m² | - |
| 1777571304 | 31.67° C | 55% | 1010.3 hPa | 0 mm | - | 1085 W/m² | - |
| 1777571001 | 31.67° C | 53% | 1010.3 hPa | 0 mm | - | 1250 W/m² | - |
| 1777570717 | 31.67° C | 52% | 1010.4 hPa | 0 mm | - | 557 W/m² | - |
| 1777570412 | 31.67° C | 52% | 1010.4 hPa | 0 mm | - | 492 W/m² | - |
| 1777570108 | 31.67° C | 56% | 1010.4 hPa | 0 mm | - | 508 W/m² | - |
| 1777569802 | 31.11° C | 56% | 1010.4 hPa | 0 mm | - | 782 W/m² | - |
| 1777569498 | 31.11° C | 56% | 1010.4 hPa | 0 mm | - | 844 W/m² | - |
| 1777569217 | 31.67° C | 56% | 1010.4 hPa | 0 mm | - | 438 W/m² | - |
| 1777568910 | 31.67° C | 56% | 1010.6 hPa | 0 mm | - | 1111 W/m² | - |
| 1777568605 | 31.67° C | 55% | 1010.6 hPa | 0 mm | - | 990 W/m² | - |
| 1777568303 | 31.11° C | 59% | 1010.6 hPa | 0 mm | - | 947 W/m² | - |
| 1777568019 | 30.56° C | 57% | 1010.8 hPa | 0 mm | - | 933 W/m² | - |
| 1777567712 | 30.56° C | 59% | 1010.8 hPa | 0 mm | - | 946 W/m² | - |
| 1777567408 | 30° C | 61% | 1010.8 hPa | 0 mm | - | 954 W/m² | - |
| 1777567104 | 30° C | 60% | 1011.1 hPa | 0 mm | - | 937 W/m² | - |
| 1777566800 | 30° C | 62% | 1011.1 hPa | 0 mm | - | 942 W/m² | - |
| 1777566496 | 29.44° C | 63% | 1011.1 hPa | 0 mm | - | 937 W/m² | - |
| 1777566213 | 29.44° C | 63% | 1011.3 hPa | 0 mm | - | 958 W/m² | - |
| 1777565912 | 29.44° C | 61% | 1011.3 hPa | 0 mm | - | 1048 W/m² | - |
* Rain latest hour (hover to see other rain measurements)
** Current wind speed in m/s (hover to see current wind gust speed)